Regional Weather Roundup
Issued by NWS Albany, NY

Home | Current Version | Previous Version | Text Only | Print | Product List | Glossary On
Versions: 1 2 3 4 5 6 7 8 9 10 11 12 13 14 15 16 17 18 19 20 21 22 23 24 25 26 27 28 29 30 31 32 33 34 35 36 37 38 39 40 41 42 43 44 45 46 47 48 49 50
000
ASUS41 KALY 311710
RWRALY

NEW YORK STATE HOURLY WEATHER ROUNDUP
NATIONAL WEATHER SERVICE ALBANY NY
100 PM EDT FRI JUL 31 2015

NOTE: "FAIR" INDICATES FEW OR NO CLOUDS BELOW 12,000 FEET WITH NO
SIGNIFICANT WEATHER AND/OR NO OBSTRUCTIONS TO VISIBILITY.

NYZ032-033-038>043-046>054-057>066-NYZ062>081-311800-
EAST


CITY           SKY/WX    TMP DP  RH WIND       PRES   REMARKS
ALBANY         MOSUNNY   81  56  42 W14G22    29.84F
GLENS FALLS    PTSUNNY   79  56  45 N6        29.81F
POUGHKEEPSIE   SUNNY     87  51  28 NW8       29.83F
NEWBURGH       SUNNY     86  57  37 NW12G17   29.88F
MONTGOMERY     SUNNY     85  54  34 W13G20    29.87S
WHITE PLAINS   MOSUNNY   84  60  44 NW12      29.86F
ISLIP          MOSUNNY   87  55  33 VRB5      29.83F
NEW YORK CITY  MOSUNNY   86  55  34 VRB5G22   29.85F
CENTRAL PARK   SUNNY     87  57  35 VRB7G17   29.89F
$$

NYZ005>009-017-018-044>046-055-056-311800-
CENTRAL


CITY           SKY/WX    TMP DP  RH WIND       PRES   REMARKS
FULTON         SUNNY     80  59  48 VRB6      29.87F
SYRACUSE       MOSUNNY   80  57  45 W12       29.86F
ROME           SUNNY     77  60  55 W13G21    29.88F
ELMIRA         MOSUNNY   82  58  43 SW10      29.89F
BINGHAMTON     SUNNY     76  55  48 W10       29.93F
MONTICELLO     MOSUNNY   81  54  39 W16G22    29.93F
$$

NYZ026>034-041>043-311800-
NORTH


CITY           SKY/WX    TMP DP  RH WIND       PRES   REMARKS
WATERTOWN      SUNNY     76  57  51 SW13      29.84F
FORT DRUM      NOT AVBL
MASSENA        NOT AVBL
SARANAC LAKE   MOSUNNY   73  53  49 SW12      29.84F
PLATTSBURGH    SUNNY     79  55  43 W8        29.77F
$$

NYZ001>004-010>016-019>021-311800-
WEST


CITY           SKY/WX    TMP DP  RH WIND       PRES   REMARKS
NIAGARA FALLS  MOSUNNY   82  61  48 SW17G26   29.84F
BUFFALO        MOSUNNY   79  65  62 SW20G31   29.86F
DUNKIRK        SUNNY     79  65  62 SW17G28   29.90F
JAMESTOWN      MOSUNNY   77  57  50 W14G23    29.95F
WELLSVILLE     MOSUNNY   76  55  48 W8        29.97F
ROCHESTER      MOSUNNY   80  58  46 SW13      29.86F
PENN YAN       SUNNY     80  55  42 VRB5      29.90F
$$

             KEY
       WCI = WIND CHILL INDEX
       VSB = VISIBILITY
       HX  = HEAT INDEX
$$



USA.gov is the U.S. government's official web portal to all federal, state and local government web resources and services.